Regional Weather Roundup
Issued by NWS

Home | Current Version | Previous Version | Text Only | Print | Product List | Glossary On
Versions: 1 2 3 4 5 6 7 8 9 10 11 12 13 14 15 16 17 18 19 20 21 22 23 24 25 26 27 28 29 30 31 32 33 34 35 36 37 38 39 40 41 42 43 44 45 46 47 48 49 50
000
ASUS43 KTOP 270559
RWRKS

WEATHER ROUNDUP FOR KANSAS
NATIONAL WEATHER SERVICE GOODLAND KS
1200 AM CST SAT DEC 27 2014

NOTE:  "FAIR" INDICATES FEW OR NO CLOUDS BELOW 12,000 FEET WITH NO
SIGNIFICANT WEATHER AND/OR OBSTRUCTIONS TO VISIBILITY.

KSZ001>006-013>018-027>032-041>047-270700-
NORTHWEST KANSAS

CITY           SKY/WX    TMP DP  RH WIND       PRES   REMARKS
GOODLAND       PTCLDY    11   9  92 NW10      30.14S WCI  -3
6HR MIN TEMP:  11; 6HR MAX TEMP:  20; 6HR PCP:  0.02;

HAYS           CLEAR     19  10  68 NW12      30.16R WCI   7
HILL CITY      CLEAR     18  14  84 NW12      30.17S WCI   5
6HR MIN TEMP:  17; 6HR MAX TEMP:  25; 6HR PCP:  0.01;

RUSSELL        CLEAR     21  19  92 NW9       30.15R
6HR MIN TEMP:  21; 6HR MAX TEMP:  28; 6HR PCP:  0.02;

$$

KSZ061>065-074>080-084>089-270700-
SOUTHWEST KANSAS

CITY           SKY/WX    TMP DP  RH WIND       PRES   REMARKS
DODGE CITY     PTCLDY    19  15  84 NW10      30.17R WCI   7
6HR MIN TEMP:  19; 6HR MAX TEMP:  27; 6HR PCP: TRACE;

ELKHART          N/A     17  11  77 NW6         N/A
GARDEN CITY    CLEAR     16  14  92 NW10      30.16R WCI   4
6HR MIN TEMP:  16; 6HR MAX TEMP:  25; 6HR PCP: TRACE;

GREAT BEND     PTCLDY    25  18  74 NW10      30.17R WCI  15
LIBERAL        PTCLDY    19  14  79 NW5       30.20R
$$

KSZ066>073-081>083-090>101-270700-
SOUTHEAST KANSAS

CITY           SKY/WX    TMP DP  RH WIND       PRES   REMARKS
CHANUTE        CLOUDY    39  35  86 NW13      30.07R WCI  31
6HR MIN TEMP:  39; 6HR MAX TEMP:  47; 6HR PCP:  0.02;

COFFEYVILLE    CLOUDY    42  36  79 NW12      30.08R
6HR MIN TEMP:  42; 6HR MAX TEMP:  53; 6HR PCP: TRACE;

HUTCHINSON     CLOUDY    31  27  85 NW10      30.14R WCI  22
6HR MIN TEMP:  31; 6HR MAX TEMP:  32; 6HR PCP: TRACE;

MEDICINE LODGE   N/A     29  25  85 NW8       30.17R
NEWTON         CLOUDY    30  25  80 NW15      30.12S WCI  19
PARSONS        CLOUDY    41  37  86 NW14      30.09R
6HR MIN TEMP:  41; 6HR MAX TEMP:  52; 6HR PCP: TRACE;

WICHITA INTL   CLOUDY    34  27  75 NW14      30.15R WCI  25
6HR MIN TEMP:  34; 6HR MAX TEMP:  36; 6HR PCP: TRACE;

WICHITA JABRA  CLOUDY    32  28  85 NW17      30.12R WCI  21
6HR MIN TEMP:  32; 6HR MAX TEMP:  35;

WICHITA MCCONL LGT RAIN  32  28  86 NW13      30.14R WCI  22
WINFIELD       CLOUDY    34  29  82 NW16      30.15R WCI  24
6HR MIN TEMP:  34; 6HR MAX TEMP:  41;

$$

KSZ007>012-019>026-033>040-048>060-102>105-270700-
NORTHEAST KANSAS

CITY           SKY/WX    TMP DP  RH WIND       PRES   REMARKS
EMPORIA        CLOUDY    33  32  96 W14       30.09R WCI  23
6HR MIN TEMP:  33; 6HR MAX TEMP:  38; 6HR PCP:  0.01;

LAWRENCE       CLOUDY    36  33  89 W8        30.05R
6HR MIN TEMP:  36; 6HR MAX TEMP:  39; 6HR PCP: TRACE;

MANHATTAN      CLOUDY    32  30  92 W9        30.10R
6HR MIN TEMP:  32; 6HR MAX TEMP:  34;

OLATHE IND     CLOUDY    37  34  89 W13       30.05R WCI  29
6HR MIN TEMP:  37; 6HR MAX TEMP:  40;

OLATHE EXE     CLOUDY    38  34  85 W9        30.02R
6HR MIN TEMP:  38; 6HR MAX TEMP:  43; 6HR PCP: TRACE;

SALINA         CLOUDY    30  27  88 NW12      30.13S WCI  20
6HR MIN TEMP:  30; 6HR MAX TEMP:  33; 6HR PCP: TRACE;

TOPEKA BILLARD CLOUDY    36  34  92 W12       30.07R WCI  28
6HR MIN TEMP:  36; 6HR MAX TEMP:  39; 6HR PCP:  0.01;

TOPEKA FORBES  CLOUDY    35  33  92 W14       30.06R WCI  26
6HR MIN TEMP:  35; 6HR MAX TEMP:  39; 6HR PCP:  0.01;

$$


USA.gov is the U.S. government's official web portal to all federal, state and local government web resources and services.